C/2019 L3 ( ATLAS )

Japanese version
Home page
Updated on July 4, 2019

---------------------------------------------------------------------

* Profile

Discovery Date June 10, 2019
Magnitude 18.1 mag
Discoverer Asteroid Terrestrial-Impact Last Alert System (ATLAS) search program

* Orbital Elements

Epoch 2022 Jan. 21.0 TT = JDT 2459600.5                                         
T 2022 Jan. 10.29172 TT                                 MPCLINUX                
q   3.5686856            (2000.0)            P               Q                  
z  -0.0007383      Peri.  171.35819     -0.25920549     -0.66705075             
 +/-0.000955       Node   290.88489     +0.83542876     +0.20803031             
e   1.0026346      Incl.   48.38154     +0.48463523     -0.71537870             
From 161 observations 2019 June 10-30, mean residual 0".5.                      

* Finding Charts

* Magnitudes Graph

        m1 = 4.5 + 5 log d + 10.0 log r

---------------------------------------------------------------------

The orbital elements are published on M.P.E.C. 2019-N11.
The charts are made with StellaNavigator Ver.10 (AstroArts).
The magnitudes graphs are made with Comet for Windows.

---------------------------------------------------------------------

Copyright(C) Seiichi Yoshida (comet@aerith.net). All rights reserved.